Time,TemperatureF,DewpointF,PressureIn,WindDirection,WindDirectionDegrees,WindSpeedMPH,WindSpeedGustMPH,Humidity,HourlyPrecipIn,Conditions,Clouds,dailyrainin,SoftwareType,DateUTC
2013-08-03 00:01:00,67.8,43.9,29.47,East,83,0.0,0.0,42,0.00,,SKC,0.00,VWS V14.01,2013-08-03 04:01:00,
2013-08-03 00:06:00,68.0,44.1,29.47,East,83,0.0,0.0,42,0.00,,SKC,0.00,VWS V14.01,2013-08-03 04:06:00,
2013-08-03 00:11:00,68.2,43.6,29.47,East,83,0.0,0.0,41,0.00,,SKC,0.00,VWS V14.01,2013-08-03 04:11:00,
2013-08-03 00:16:00,68.2,43.6,29.44,East,83,0.0,0.0,41,0.00,,SKC,0.00,VWS V14.01,2013-08-03 04:16:00,
2013-08-03 00:21:00,68.2,42.3,29.44,East,83,0.0,0.0,39,0.00,,SKC,0.00,VWS V14.01,2013-08-03 04:21:00,
2013-08-03 00:26:00,68.2,42.3,29.44,East,83,0.0,0.0,39,0.00,,SKC,0.00,VWS V14.01,2013-08-03 04:26:00,
2013-08-03 00:31:00,68.2,42.3,29.47,East,83,0.0,0.0,39,0.00,,SKC,0.00,VWS V14.01,2013-08-03 04:31:00,
2013-08-03 00:36:00,68.2,41.6,29.47,East,83,0.0,0.0,38,0.00,,SKC,0.00,VWS V14.01,2013-08-03 04:36:00,
2013-08-03 00:41:00,68.2,41.6,29.47,East,83,0.0,0.0,38,0.00,,SKC,0.00,VWS V14.01,2013-08-03 04:41:00,
2013-08-03 00:46:00,68.2,40.9,29.47,East,83,0.0,0.0,37,0.00,,SKC,0.00,VWS V14.01,2013-08-03 04:46:00,
2013-08-03 00:51:00,68.2,40.9,29.47,East,83,0.0,0.0,37,0.00,,SKC,0.00,VWS V14.01,2013-08-03 04:51:00,
2013-08-03 00:56:00,68.0,40.8,29.47,East,83,0.0,0.0,37,0.00,,SKC,0.00,VWS V14.01,2013-08-03 04:56:00,
2013-08-03 01:01:00,68.0,40.8,29.44,East,83,0.0,0.0,37,0.00,,SKC,0.00,VWS V14.01,2013-08-03 05:01:00,
2013-08-03 01:05:00,68.0,40.1,29.44,East,83,0.0,0.0,36,0.00,,SKC,0.00,VWS V14.01,2013-08-03 05:05:00,
2013-08-03 01:11:00,67.8,39.9,29.44,East,83,0.0,0.0,36,0.00,,SKC,0.00,VWS V14.01,2013-08-03 05:11:00,
2013-08-03 01:15:00,67.6,39.8,29.44,East,83,0.0,0.0,36,0.00,,SKC,0.00,VWS V14.01,2013-08-03 05:15:00,
2013-08-03 01:21:00,67.6,39.8,29.44,East,83,0.0,0.0,36,0.00,,SKC,0.00,VWS V14.01,2013-08-03 05:21:00,
2013-08-03 01:26:00,67.6,39.0,29.44,East,83,0.0,0.0,35,0.00,,SKC,0.00,VWS V14.01,2013-08-03 05:26:00,
2013-08-03 01:31:00,67.6,39.0,29.44,East,83,0.0,0.0,35,0.00,,SKC,0.00,VWS V14.01,2013-08-03 05:31:00,
2013-08-03 01:36:00,67.6,39.0,29.44,East,83,0.0,0.0,35,0.00,,SKC,0.00,VWS V14.01,2013-08-03 05:36:00,
2013-08-03 01:41:00,67.6,39.0,29.44,East,83,0.0,0.0,35,0.00,,SKC,0.00,VWS V14.01,2013-08-03 05:41:00,
2013-08-03 01:46:00,67.5,38.9,29.44,East,83,0.0,0.0,35,0.00,,SKC,0.00,VWS V14.01,2013-08-03 05:46:00,
2013-08-03 01:51:00,67.3,38.7,29.44,East,83,0.0,0.0,35,0.00,,SKC,0.00,VWS V14.01,2013-08-03 05:51:00,
2013-08-03 01:55:00,67.1,38.6,29.44,East,83,0.0,0.0,35,0.00,,SKC,0.00,VWS V14.01,2013-08-03 05:55:00,
2013-08-03 02:00:00,66.9,38.4,29.44,East,83,0.0,0.0,35,0.00,,SKC,0.00,VWS V14.01,2013-08-03 06:00:00,
2013-08-03 02:05:00,66.9,38.4,29.44,East,83,0.0,0.0,35,0.00,,SKC,0.00,VWS V14.01,2013-08-03 06:05:00,
2013-08-03 02:10:00,66.9,38.4,29.44,East,83,0.0,0.0,35,0.00,,SKC,0.00,VWS V14.01,2013-08-03 06:10:00,
2013-08-03 02:15:00,66.7,38.2,29.41,East,83,0.0,0.0,35,0.00,,SKC,0.00,VWS V14.01,2013-08-03 06:15:00,
2013-08-03 02:20:00,66.6,38.8,29.41,East,83,0.0,0.0,36,0.00,,SKC,0.00,VWS V14.01,2013-08-03 06:20:00,
2013-08-03 02:25:00,66.4,39.3,29.41,East,83,0.0,0.0,37,0.00,,SKC,0.00,VWS V14.01,2013-08-03 06:25:00,
2013-08-03 02:30:00,66.2,39.9,29.44,East,83,0.0,0.0,38,0.00,,SKC,0.00,VWS V14.01,2013-08-03 06:30:00,
2013-08-03 02:35:00,66.0,39.7,29.44,East,83,0.0,0.0,38,0.00,,SKC,0.00,VWS V14.01,2013-08-03 06:35:00,
2013-08-03 02:40:00,65.8,40.2,29.44,East,83,0.0,0.0,39,0.00,,SKC,0.00,VWS V14.01,2013-08-03 06:40:00,
2013-08-03 02:45:00,65.8,40.9,29.44,East,83,0.0,0.0,40,0.00,,SKC,0.00,VWS V14.01,2013-08-03 06:45:00,
2013-08-03 02:50:00,65.8,41.5,29.44,East,83,0.0,0.0,41,0.00,,SKC,0.00,VWS V14.01,2013-08-03 06:50:00,
2013-08-03 02:55:00,65.7,42.0,29.44,East,83,0.0,0.0,42,0.00,,SKC,0.00,VWS V14.01,2013-08-03 06:55:00,
2013-08-03 03:00:00,65.7,42.0,29.44,East,83,0.0,0.0,42,0.00,,SKC,0.00,VWS V14.01,2013-08-03 07:00:00,
2013-08-03 03:05:00,65.5,41.8,29.44,East,83,0.0,0.0,42,0.00,,SKC,0.00,VWS V14.01,2013-08-03 07:05:00,
2013-08-03 03:10:00,65.5,42.4,29.44,East,83,0.0,0.0,43,0.00,,SKC,0.00,VWS V14.01,2013-08-03 07:10:00,
2013-08-03 03:15:00,65.5,42.4,29.41,East,83,0.0,0.0,43,0.00,,SKC,0.00,VWS V14.01,2013-08-03 07:15:00,
2013-08-03 03:20:00,65.5,42.4,29.41,East,83,0.0,0.0,43,0.00,,SKC,0.00,VWS V14.01,2013-08-03 07:20:00,
2013-08-03 03:25:00,65.7,42.6,29.41,East,83,0.0,0.0,43,0.00,,SKC,0.00,VWS V14.01,2013-08-03 07:25:00,
2013-08-03 03:30:00,65.7,42.0,29.41,East,83,0.0,0.0,42,0.00,,SKC,0.00,VWS V14.01,2013-08-03 07:30:00,
2013-08-03 03:35:00,65.7,42.6,29.41,East,83,0.0,0.0,43,0.00,,SKC,0.00,VWS V14.01,2013-08-03 07:35:00,
2013-08-03 03:40:00,65.8,42.7,29.41,East,83,0.0,0.0,43,0.00,,SKC,0.00,VWS V14.01,2013-08-03 07:40:00,
2013-08-03 03:45:00,65.8,42.7,29.41,East,83,0.0,0.0,43,0.00,,SKC,0.00,VWS V14.01,2013-08-03 07:45:00,
2013-08-03 03:50:00,65.8,42.1,29.41,East,83,0.0,0.0,42,0.00,,SKC,0.00,VWS V14.01,2013-08-03 07:50:00,
2013-08-03 03:55:00,65.8,42.1,29.41,East,83,0.0,0.0,42,0.00,,SKC,0.00,VWS V14.01,2013-08-03 07:55:00,
2013-08-03 04:00:00,65.8,42.1,29.41,East,83,0.0,0.0,42,0.00,,SKC,0.00,VWS V14.01,2013-08-03 08:00:00,
2013-08-03 04:05:00,65.8,42.7,29.41,East,83,0.0,0.0,43,0.00,,SKC,0.00,VWS V14.01,2013-08-03 08:05:00,
2013-08-03 04:10:00,65.8,43.3,29.41,East,83,0.0,0.0,44,0.00,,SKC,0.00,VWS V14.01,2013-08-03 08:10:00,
2013-08-03 04:15:00,66.0,43.5,29.44,East,83,0.0,0.0,44,0.00,,SKC,0.00,VWS V14.01,2013-08-03 08:15:00,
2013-08-03 04:20:00,66.0,43.5,29.44,East,83,0.0,0.0,44,0.00,,SKC,0.00,VWS V14.01,2013-08-03 08:20:00,
2013-08-03 04:25:00,66.0,43.5,29.44,East,83,0.0,0.0,44,0.00,,SKC,0.00,VWS V14.01,2013-08-03 08:25:00,
2013-08-03 04:30:00,66.2,43.1,29.44,East,83,0.0,0.0,43,0.00,,SKC,0.00,VWS V14.01,2013-08-03 08:30:00,
2013-08-03 04:35:00,66.2,43.1,29.44,East,83,0.0,0.0,43,0.00,,SKC,0.00,VWS V14.01,2013-08-03 08:35:00,
2013-08-03 04:40:00,66.2,43.1,29.44,East,83,0.0,0.0,43,0.00,,SKC,0.00,VWS V14.01,2013-08-03 08:40:00,
2013-08-03 04:45:00,66.2,43.1,29.44,East,83,0.0,0.0,43,0.00,,SKC,0.00,VWS V14.01,2013-08-03 08:45:00,
2013-08-03 04:50:00,66.2,43.1,29.44,East,83,0.0,0.0,43,0.00,,SKC,0.00,VWS V14.01,2013-08-03 08:50:00,
2013-08-03 04:55:00,66.2,42.5,29.44,East,83,0.0,0.0,42,0.00,,SKC,0.00,VWS V14.01,2013-08-03 08:55:00,
2013-08-03 05:00:00,66.2,42.5,29.44,East,83,0.0,0.0,42,0.00,,SKC,0.00,VWS V14.01,2013-08-03 09:00:00,
2013-08-03 05:05:00,66.2,43.1,29.44,East,83,0.0,0.0,43,0.00,,SKC,0.00,VWS V14.01,2013-08-03 09:05:00,
2013-08-03 05:10:00,66.2,43.1,29.44,East,83,0.0,0.0,43,0.00,,SKC,0.00,VWS V14.01,2013-08-03 09:10:00,
2013-08-03 05:15:00,66.0,43.5,29.44,East,83,0.0,0.0,44,0.00,,SKC,0.00,VWS V14.01,2013-08-03 09:15:00,
2013-08-03 05:20:00,65.7,43.2,29.44,East,83,0.0,0.0,44,0.00,,SKC,0.00,VWS V14.01,2013-08-03 09:20:00,
2013-08-03 05:25:00,65.5,43.6,29.44,East,83,0.0,0.0,45,0.00,,SKC,0.00,VWS V14.01,2013-08-03 09:25:00,
2013-08-03 05:30:00,65.3,43.4,29.44,East,83,0.0,0.0,45,0.00,,SKC,0.00,VWS V14.01,2013-08-03 09:30:00,
2013-08-03 05:35:00,65.1,43.3,29.44,East,83,0.0,0.0,45,0.00,,SKC,0.00,VWS V14.01,2013-08-03 09:35:00,
2013-08-03 05:40:00,65.1,43.8,29.44,East,83,0.0,0.0,46,0.00,,SKC,0.00,VWS V14.01,2013-08-03 09:40:00,
2013-08-03 05:45:00,65.1,44.4,29.44,East,83,0.0,0.0,47,0.00,,SKC,0.00,VWS V14.01,2013-08-03 09:45:00,
2013-08-03 05:50:00,65.1,44.4,29.44,East,83,0.0,0.0,47,0.00,,SKC,0.00,VWS V14.01,2013-08-03 09:50:00,
2013-08-03 05:55:00,64.9,44.8,29.44,East,83,0.0,0.0,48,0.00,,SKC,0.00,VWS V14.01,2013-08-03 09:55:00,
2013-08-03 06:00:00,64.8,44.6,29.44,East,83,0.0,0.0,48,0.00,,SKC,0.00,VWS V14.01,2013-08-03 10:00:00,
2013-08-03 06:05:00,64.8,45.2,29.44,East,83,0.0,0.0,49,0.00,,SKC,0.00,VWS V14.01,2013-08-03 10:05:00,
2013-08-03 06:10:00,64.8,45.7,29.44,East,83,0.0,0.0,50,0.00,,SKC,0.00,VWS V14.01,2013-08-03 10:10:00,
2013-08-03 06:15:00,64.8,45.7,29.44,East,83,0.0,0.0,50,0.00,,SKC,0.00,VWS V14.01,2013-08-03 10:15:00,
2013-08-03 06:20:00,64.6,46.6,29.44,East,83,0.0,0.0,52,0.00,,SKC,0.00,VWS V14.01,2013-08-03 10:20:00,
2013-08-03 06:25:00,64.4,46.9,29.44,East,83,0.0,0.0,53,0.00,,SKC,0.00,VWS V14.01,2013-08-03 10:25:00,
2013-08-03 06:30:00,64.4,46.4,29.44,East,83,0.0,0.0,52,0.00,,SKC,0.00,VWS V14.01,2013-08-03 10:30:00,
2013-08-03 06:35:00,64.2,46.8,29.44,East,83,0.0,0.0,53,0.00,,SKC,0.00,VWS V14.01,2013-08-03 10:35:00,
2013-08-03 06:40:00,64.0,47.1,29.44,East,83,0.0,0.0,54,0.00,,SKC,0.00,VWS V14.01,2013-08-03 10:40:00,
2013-08-03 06:45:00,63.9,46.9,29.44,East,83,0.0,0.0,54,0.00,,SKC,0.00,VWS V14.01,2013-08-03 10:45:00,
2013-08-03 06:50:00,63.9,47.4,29.44,East,83,0.0,0.0,55,0.00,,SKC,0.00,VWS V14.01,2013-08-03 10:50:00,
2013-08-03 06:54:00,63.9,48.3,29.44,East,83,0.0,0.0,57,0.00,,SKC,0.00,VWS V14.01,2013-08-03 10:54:00,
2013-08-03 06:59:00,63.9,48.3,29.44,East,83,0.0,0.0,57,0.00,,SKC,0.00,VWS V14.01,2013-08-03 10:59:00,
2013-08-03 07:05:00,63.9,48.3,29.44,East,83,0.0,0.0,57,0.00,,SKC,0.00,VWS V14.01,2013-08-03 11:05:00,
2013-08-03 07:10:00,63.9,48.8,29.44,East,83,0.0,0.0,58,0.00,,SKC,0.00,VWS V14.01,2013-08-03 11:10:00,
2013-08-03 07:15:00,64.0,50.3,29.47,East,83,0.0,0.0,61,0.00,,SKC,0.00,VWS V14.01,2013-08-03 11:15:00,
2013-08-03 07:20:00,64.2,51.8,29.47,East,83,0.0,0.0,64,0.00,,SKC,0.00,VWS V14.01,2013-08-03 11:20:00,
2013-08-03 07:25:00,64.2,51.4,29.47,East,83,0.0,0.0,63,0.00,,SKC,0.00,VWS V14.01,2013-08-03 11:25:00,
2013-08-03 07:29:00,64.4,51.5,29.47,East,89,0.0,0.0,63,0.00,,SKC,0.00,VWS V14.01,2013-08-03 11:29:00,
2013-08-03 07:35:00,64.4,52.0,29.47,East,96,0.0,0.0,64,0.00,,SKC,0.00,VWS V14.01,2013-08-03 11:35:00,
2013-08-03 07:40:00,64.4,52.0,29.47,East,96,0.0,0.0,64,0.00,,SKC,0.00,VWS V14.01,2013-08-03 11:40:00,
2013-08-03 07:45:00,64.6,52.6,29.44,East,96,0.0,0.0,65,0.00,,SKC,0.00,VWS V14.01,2013-08-03 11:45:00,
2013-08-03 07:50:00,64.6,52.6,29.44,East,96,0.0,0.0,65,0.00,,SKC,0.00,VWS V14.01,2013-08-03 11:50:00,
2013-08-03 07:55:00,64.8,52.7,29.44,East,96,0.0,0.0,65,0.00,,SKC,0.00,VWS V14.01,2013-08-03 11:55:00,
2013-08-03 08:00:00,64.8,52.7,29.44,East,95,0.0,0.0,65,0.00,,SKC,0.00,VWS V14.01,2013-08-03 12:00:00,
2013-08-03 08:05:00,64.8,53.2,29.44,East,96,0.0,0.0,66,0.00,,SKC,0.00,VWS V14.01,2013-08-03 12:05:00,
2013-08-03 08:10:00,64.9,53.3,29.44,East,96,0.0,0.0,66,0.00,,SKC,0.00,VWS V14.01,2013-08-03 12:10:00,
2013-08-03 08:15:00,64.9,53.3,29.44,East,96,0.0,0.0,66,0.00,,SKC,0.00,VWS V14.01,2013-08-03 12:15:00,
2013-08-03 08:19:00,65.1,54.3,29.44,SE,124,0.0,0.0,68,0.00,,SKC,0.00,VWS V14.01,2013-08-03 12:19:00,
2013-08-03 08:24:00,65.3,54.9,29.44,SE,124,0.0,0.0,69,0.00,,SKC,0.00,VWS V14.01,2013-08-03 12:24:00,
2013-08-03 08:29:00,65.3,55.7,29.44,SE,124,0.0,0.0,71,0.00,,SKC,0.00,VWS V14.01,2013-08-03 12:29:00,
2013-08-03 08:34:00,65.1,55.9,29.44,SE,124,0.0,0.0,72,0.00,,SKC,0.00,VWS V14.01,2013-08-03 12:34:00,
2013-08-03 08:39:00,65.1,55.9,29.44,SE,124,0.0,0.0,72,0.00,,SKC,0.00,VWS V14.01,2013-08-03 12:39:00,
2013-08-03 08:44:00,65.3,56.4,29.44,SE,124,0.0,0.0,73,0.00,,SKC,0.00,VWS V14.01,2013-08-03 12:44:00,
2013-08-03 08:49:00,65.1,56.3,29.44,SE,124,0.0,0.0,73,0.00,,SKC,0.00,VWS V14.01,2013-08-03 12:49:00,
2013-08-03 08:54:00,65.3,56.4,29.44,SE,124,0.0,0.0,73,0.00,,SKC,0.00,VWS V14.01,2013-08-03 12:54:00,
2013-08-03 08:59:00,65.3,56.0,29.44,SE,124,0.0,0.0,72,0.00,,SKC,0.00,VWS V14.01,2013-08-03 12:59:00,
2013-08-03 09:04:00,65.5,56.6,29.44,SE,124,0.0,0.0,73,0.00,,SKC,0.00,VWS V14.01,2013-08-03 13:04:00,
2013-08-03 09:09:00,65.5,56.6,29.44,SE,124,0.0,0.0,73,0.00,,SKC,0.00,VWS V14.01,2013-08-03 13:09:00,
2013-08-03 09:14:00,65.7,56.8,29.47,SE,124,0.0,0.0,73,0.04,,SKC,0.04,VWS V14.01,2013-08-03 13:14:00,
2013-08-03 09:19:00,65.7,56.8,29.47,SE,124,0.0,0.0,73,0.04,,SKC,0.04,VWS V14.01,2013-08-03 13:19:00,
2013-08-03 09:24:00,65.7,57.2,29.47,SE,124,0.0,0.0,74,0.04,,SKC,0.04,VWS V14.01,2013-08-03 13:24:00,
2013-08-03 09:29:00,65.7,57.5,29.44,SE,124,0.0,0.0,75,0.04,,SKC,0.04,VWS V14.01,2013-08-03 13:29:00,
2013-08-03 09:34:00,65.7,57.9,29.44,SE,124,0.0,0.0,76,0.04,,SKC,0.04,VWS V14.01,2013-08-03 13:34:00,
2013-08-03 09:39:00,65.8,57.7,29.44,SE,124,0.0,0.0,75,0.04,,SKC,0.04,VWS V14.01,2013-08-03 13:39:00,
2013-08-03 09:44:00,65.8,57.7,29.44,SE,124,0.0,0.0,75,0.04,,SKC,0.04,VWS V14.01,2013-08-03 13:44:00,
2013-08-03 09:49:00,66.0,57.9,29.44,SE,124,0.0,0.0,75,0.04,,SKC,0.04,VWS V14.01,2013-08-03 13:49:00,
2013-08-03 09:54:00,66.0,57.9,29.44,SE,124,0.0,0.0,75,0.04,,SKC,0.04,VWS V14.01,2013-08-03 13:54:00,
2013-08-03 09:59:00,66.2,58.0,29.47,SE,124,0.0,0.0,75,0.04,,SKC,0.04,VWS V14.01,2013-08-03 13:59:00,
2013-08-03 10:04:00,66.2,58.0,29.47,SE,124,0.0,0.0,75,0.04,,SKC,0.04,VWS V14.01,2013-08-03 14:04:00,
2013-08-03 10:09:00,66.2,58.0,29.47,SE,124,0.0,0.0,75,0.04,,SKC,0.04,VWS V14.01,2013-08-03 14:09:00,
2013-08-03 10:14:00,66.2,58.0,29.44,SE,124,0.0,0.0,75,0.00,,SKC,0.04,VWS V14.01,2013-08-03 14:14:00,
2013-08-03 10:19:00,66.2,58.0,29.44,SE,124,0.0,0.0,75,0.00,,SKC,0.04,VWS V14.01,2013-08-03 14:19:00,
2013-08-03 10:24:00,66.2,58.0,29.44,SE,124,0.0,0.0,75,0.00,,SKC,0.04,VWS V14.01,2013-08-03 14:24:00,
2013-08-03 10:29:00,66.2,58.0,29.47,SE,124,0.0,0.0,75,0.00,,SKC,0.04,VWS V14.01,2013-08-03 14:29:00,
2013-08-03 10:34:00,66.2,58.0,29.47,SE,124,0.0,0.0,75,0.00,,SKC,0.00,VWS V14.01,2013-08-03 14:34:00,
2013-08-03 10:39:00,66.2,58.0,29.47,SE,124,0.0,0.0,75,0.00,,SKC,0.04,VWS V14.01,2013-08-03 14:39:00,
2013-08-03 10:44:00,66.2,58.0,29.47,SE,124,0.0,0.0,75,0.00,,SKC,0.04,VWS V14.01,2013-08-03 14:44:00,
2013-08-03 10:49:00,66.4,58.6,29.47,SE,124,0.0,0.0,76,0.00,,SKC,0.04,VWS V14.01,2013-08-03 14:49:00,
2013-08-03 10:54:00,66.4,58.6,29.47,SE,124,0.0,0.0,76,0.00,,SKC,0.04,VWS V14.01,2013-08-03 14:54:00,
2013-08-03 10:59:00,66.7,59.3,29.47,SE,124,0.0,0.0,77,0.00,,SKC,0.04,VWS V14.01,2013-08-03 14:59:00,
2013-08-03 11:04:00,66.7,58.9,29.47,SE,124,0.0,0.0,76,0.00,,SKC,0.04,VWS V14.01,2013-08-03 15:04:00,
2013-08-03 11:09:00,66.7,58.9,29.47,SE,124,0.0,0.0,76,0.00,,SKC,0.04,VWS V14.01,2013-08-03 15:09:00,
2013-08-03 11:14:00,67.1,59.7,29.47,SE,124,0.0,0.0,77,0.00,,SKC,0.04,VWS V14.01,2013-08-03 15:14:00,
2013-08-03 11:19:00,67.3,59.8,29.47,SE,124,0.0,0.0,77,0.00,,SKC,0.04,VWS V14.01,2013-08-03 15:19:00,
2013-08-03 11:24:00,67.3,59.8,29.47,SE,124,0.0,0.0,77,0.00,,SKC,0.04,VWS V14.01,2013-08-03 15:24:00,
2013-08-03 11:29:00,67.3,59.5,29.47,SE,124,0.0,0.0,76,0.00,,SKC,0.04,VWS V14.01,2013-08-03 15:29:00,
2013-08-03 11:34:00,67.5,60.0,29.47,SE,124,0.0,0.0,77,0.00,,SKC,0.04,VWS V14.01,2013-08-03 15:34:00,
2013-08-03 11:39:00,67.6,60.2,29.47,SE,124,0.0,0.0,77,0.00,,SKC,0.04,VWS V14.01,2013-08-03 15:39:00,
2013-08-03 11:44:00,67.6,59.8,29.47,SE,124,0.0,0.0,76,0.00,,SKC,0.04,VWS V14.01,2013-08-03 15:44:00,
2013-08-03 11:49:00,67.8,60.0,29.47,SE,124,0.0,0.0,76,0.00,,SKC,0.04,VWS V14.01,2013-08-03 15:49:00,
2013-08-03 11:54:00,67.8,60.0,29.47,SE,124,0.0,0.0,76,0.00,,SKC,0.04,VWS V14.01,2013-08-03 15:54:00,
2013-08-03 11:59:00,68.0,60.2,29.44,SE,124,0.0,0.0,76,0.00,,SKC,0.04,VWS V14.01,2013-08-03 15:59:00,
2013-08-03 12:04:00,68.0,59.8,29.44,SE,124,0.0,0.0,75,0.00,,SKC,0.04,VWS V14.01,2013-08-03 16:04:00,
2013-08-03 12:09:00,68.0,59.8,29.44,SE,124,0.0,0.0,75,0.00,,SKC,0.04,VWS V14.01,2013-08-03 16:09:00,
2013-08-03 12:14:00,68.0,59.8,29.44,SE,124,0.0,0.0,75,0.00,,SKC,0.04,VWS V14.01,2013-08-03 16:14:00,
2013-08-03 12:19:00,68.0,59.8,29.44,SE,124,0.0,0.0,75,0.00,,SKC,0.04,VWS V14.01,2013-08-03 16:19:00,
2013-08-03 12:24:00,68.0,59.8,29.44,SE,124,0.0,0.0,75,0.00,,SKC,0.04,VWS V14.01,2013-08-03 16:24:00,
2013-08-03 12:29:00,68.2,60.0,29.44,SE,124,0.0,0.0,75,0.00,,SKC,0.04,VWS V14.01,2013-08-03 16:29:00,
2013-08-03 12:34:00,68.2,60.3,29.44,SE,124,0.0,0.0,76,0.00,,SKC,0.04,VWS V14.01,2013-08-03 16:34:00,
2013-08-03 12:39:00,68.4,60.5,29.44,SE,124,0.0,0.0,76,0.00,,SKC,0.04,VWS V14.01,2013-08-03 16:39:00,
2013-08-03 12:44:00,68.5,60.7,29.44,SE,124,0.0,0.0,76,0.00,,SKC,0.04,VWS V14.01,2013-08-03 16:44:00,
2013-08-03 12:49:00,68.7,60.9,29.44,SE,124,0.0,0.0,76,0.00,,SKC,0.04,VWS V14.01,2013-08-03 16:49:00,
2013-08-03 12:54:00,68.5,60.3,29.44,SE,124,0.0,0.0,75,0.00,,SKC,0.04,VWS V14.01,2013-08-03 16:54:00,
2013-08-03 12:59:00,68.5,60.3,29.44,SE,124,0.0,0.0,75,0.00,,SKC,0.04,VWS V14.01,2013-08-03 16:59:00,
2013-08-03 13:03:00,68.7,60.9,29.44,SE,124,0.0,0.0,76,0.00,,SKC,0.04,VWS V14.01,2013-08-03 17:03:00,
2013-08-03 13:09:00,68.9,61.0,29.44,SE,124,0.0,0.0,76,0.00,,SKC,0.04,VWS V14.01,2013-08-03 17:09:00,
2013-08-03 13:14:00,69.1,61.2,29.44,SE,124,0.0,0.0,76,0.00,,SKC,0.04,VWS V14.01,2013-08-03 17:14:00,
2013-08-03 13:19:00,69.3,61.4,29.44,SE,124,0.0,0.0,76,0.00,,SKC,0.04,VWS V14.01,2013-08-03 17:19:00,
2013-08-03 13:23:00,69.6,62.1,29.44,SE,124,0.0,0.0,77,0.00,,SKC,0.04,VWS V14.01,2013-08-03 17:23:00,
2013-08-03 13:29:00,70.0,62.1,29.44,NNE,14,0.0,0.0,76,0.00,,SKC,0.04,VWS V14.01,2013-08-03 17:29:00,
2013-08-03 13:34:00,70.5,62.6,29.44,NNE,14,0.0,0.0,76,0.00,,SKC,0.04,VWS V14.01,2013-08-03 17:34:00,
2013-08-03 13:38:00,70.9,61.8,29.44,NNE,14,0.0,0.0,73,0.00,,SKC,0.04,VWS V14.01,2013-08-03 17:38:00,
2013-08-03 13:44:00,71.1,61.6,29.44,NNE,14,0.0,0.0,72,0.00,,SKC,0.04,VWS V14.01,2013-08-03 17:44:00,
2013-08-03 13:49:00,70.9,58.1,29.44,ESE,102,0.0,0.0,64,0.00,,SKC,0.04,VWS V14.01,2013-08-03 17:49:00,
2013-08-03 13:54:00,71.8,60.2,29.44,WSW,256,0.0,0.0,67,0.00,,SKC,0.04,VWS V14.01,2013-08-03 17:54:00,
2013-08-03 13:59:00,72.5,57.8,29.44,ENE,75,0.0,0.0,60,0.00,,SKC,0.04,VWS V14.01,2013-08-03 17:59:00,
2013-08-03 14:04:00,73.6,59.3,29.44,East,101,0.0,3.1,61,0.00,,SKC,0.04,VWS V14.01,2013-08-03 18:04:00,
2013-08-03 14:09:00,73.9,53.0,29.44,ESE,107,0.0,0.0,48,0.00,,SKC,0.04,VWS V14.01,2013-08-03 18:09:00,
2013-08-03 14:14:00,74.1,49.6,29.44,East,83,0.0,0.0,42,0.00,,SKC,0.04,VWS V14.01,2013-08-03 18:14:00,
2013-08-03 14:19:00,74.3,50.4,29.44,South,176,0.0,0.0,43,0.00,,SKC,0.04,VWS V14.01,2013-08-03 18:19:00,
2013-08-03 14:24:00,74.5,47.9,29.44,East,97,0.0,2.2,39,0.00,,SKC,0.04,VWS V14.01,2013-08-03 18:24:00,
2013-08-03 14:29:00,74.5,47.9,29.44,SSE,152,0.0,3.1,39,0.00,,SKC,0.04,VWS V14.01,2013-08-03 18:29:00,
2013-08-03 14:33:00,74.7,49.4,29.44,SE,125,0.0,2.7,41,0.00,,SKC,0.04,VWS V14.01,2013-08-03 18:33:00,
2013-08-03 14:38:00,74.8,48.9,29.44,SE,140,4.8,4.8,40,0.00,,SKC,0.04,VWS V14.01,2013-08-03 18:38:00,
2013-08-03 14:43:00,74.8,48.2,29.44,ESE,121,0.0,0.0,39,0.00,,SKC,0.04,VWS V14.01,2013-08-03 18:43:00,
2013-08-03 14:48:00,74.8,48.2,29.44,SSW,202,0.0,0.0,39,0.00,,SKC,0.04,VWS V14.01,2013-08-03 18:48:00,
2013-08-03 14:53:00,74.8,48.2,29.44,SE,137,0.0,0.0,39,0.00,,SKC,0.04,VWS V14.01,2013-08-03 18:53:00,
2013-08-03 14:58:00,75.4,45.9,29.41,ESE,120,4.8,4.8,35,0.00,,SKC,0.04,VWS V14.01,2013-08-03 18:58:00,
2013-08-03 15:03:00,76.3,46.7,29.41,West,268,4.0,4.0,35,0.00,,SKC,0.04,VWS V14.01,2013-08-03 19:03:00,
2013-08-03 15:08:00,77.2,46.7,29.41,WSW,242,6.4,6.4,34,0.00,,SKC,0.04,VWS V14.01,2013-08-03 19:08:00,
2013-08-03 15:13:00,78.1,46.7,29.41,NNW,329,0.0,0.0,33,0.00,,SKC,0.04,VWS V14.01,2013-08-03 19:13:00,
2013-08-03 15:18:00,78.4,45.3,29.41,SSE,161,0.0,0.0,31,0.00,,SKC,0.04,VWS V14.01,2013-08-03 19:18:00,
2013-08-03 15:23:00,78.3,45.2,29.41,SE,132,0.0,2.7,31,0.00,,SKC,0.04,VWS V14.01,2013-08-03 19:23:00,
2013-08-03 15:28:00,77.7,44.7,29.41,South,175,0.0,3.6,31,0.00,,SKC,0.04,VWS V14.01,2013-08-03 19:28:00,
2013-08-03 15:33:00,77.5,44.5,29.41,SSE,168,4.8,4.8,31,0.00,,SKC,0.04,VWS V14.01,2013-08-03 19:33:00,
2013-08-03 15:38:00,78.1,45.8,29.41,WSW,247,5.6,5.6,32,0.00,,SKC,0.04,VWS V14.01,2013-08-03 19:38:00,
2013-08-03 15:43:00,78.6,45.5,29.41,SSE,157,0.0,2.7,31,0.00,,SKC,0.04,VWS V14.01,2013-08-03 19:43:00,
2013-08-03 15:48:00,79.2,45.1,29.41,SSE,165,4.8,4.8,30,0.00,,SKC,0.04,VWS V14.01,2013-08-03 19:48:00,
2013-08-03 15:53:00,79.2,45.1,29.41,SSW,205,0.0,0.0,30,0.00,,SKC,0.04,VWS V14.01,2013-08-03 19:53:00,
2013-08-03 15:58:00,78.8,42.0,29.41,ESE,105,4.0,4.0,27,0.00,,SKC,0.04,VWS V14.01,2013-08-03 19:58:00,
2013-08-03 16:03:00,78.4,43.6,29.41,West,279,0.0,0.0,29,0.00,,SKC,0.04,VWS V14.01,2013-08-03 20:03:00,
2013-08-03 16:08:00,78.1,43.3,29.41,SSW,212,0.0,0.0,29,0.00,,SKC,0.04,VWS V14.01,2013-08-03 20:08:00,
2013-08-03 16:13:00,77.9,44.0,29.41,WSW,253,0.0,0.0,30,0.00,,SKC,0.04,VWS V14.01,2013-08-03 20:13:00,
2013-08-03 16:18:00,77.9,44.0,29.38,SE,146,0.0,2.2,30,0.00,,SKC,0.04,VWS V14.01,2013-08-03 20:18:00,
2013-08-03 16:23:00,77.9,44.0,29.38,ENE,59,0.0,0.0,30,0.00,,SKC,0.04,VWS V14.01,2013-08-03 20:23:00,
2013-08-03 16:28:00,78.4,44.5,29.38,South,170,0.0,0.0,30,0.00,,SKC,0.04,VWS V14.01,2013-08-03 20:28:00,
2013-08-03 16:33:00,78.8,43.9,29.38,SW,226,0.0,0.0,29,0.00,,SKC,0.04,VWS V14.01,2013-08-03 20:33:00,
2013-08-03 16:38:00,79.3,42.5,29.38,NNE,18,0.0,2.7,27,0.00,,SKC,0.04,VWS V14.01,2013-08-03 20:38:00,
2013-08-03 16:43:00,79.5,42.6,29.38,SE,142,0.0,0.0,27,0.00,,SKC,0.04,VWS V14.01,2013-08-03 20:43:00,
2013-08-03 16:48:00,79.5,42.6,29.38,West,267,0.0,2.7,27,0.00,,SKC,0.04,VWS V14.01,2013-08-03 20:48:00,
2013-08-03 16:53:00,79.9,41.0,29.38,SSE,156,0.0,0.0,25,0.00,,SKC,0.04,VWS V14.01,2013-08-03 20:53:00,
2013-08-03 16:58:00,79.5,40.7,29.38,West,260,4.0,4.0,25,0.00,,SKC,0.04,VWS V14.01,2013-08-03 20:58:00,
2013-08-03 17:03:00,79.0,42.2,29.38,ESE,105,0.0,2.2,27,0.00,,SKC,0.04,VWS V14.01,2013-08-03 21:03:00,
2013-08-03 17:08:00,78.3,44.3,29.38,ESE,106,0.0,0.0,30,0.00,,SKC,0.04,VWS V14.01,2013-08-03 21:08:00,
2013-08-03 17:13:00,77.5,43.7,29.38,WNW,286,0.0,0.0,30,0.00,,SKC,0.04,VWS V14.01,2013-08-03 21:13:00,
2013-08-03 17:18:00,77.0,44.1,29.38,WNW,292,0.0,0.0,31,0.00,,SKC,0.04,VWS V14.01,2013-08-03 21:18:00,
2013-08-03 17:23:00,76.5,43.6,29.38,NNE,15,0.0,2.7,31,0.00,,SKC,0.04,VWS V14.01,2013-08-03 21:23:00,
2013-08-03 17:28:00,76.1,44.1,29.38,NNE,33,0.0,0.0,32,0.00,,SKC,0.04,VWS V14.01,2013-08-03 21:28:00,
2013-08-03 17:33:00,75.9,44.0,29.41,East,84,0.0,0.0,32,0.00,,SKC,0.04,VWS V14.01,2013-08-03 21:33:00,
2013-08-03 17:38:00,75.7,44.6,29.41,East,95,4.8,4.8,33,0.00,,SKC,0.04,VWS V14.01,2013-08-03 21:38:00,
2013-08-03 17:43:00,75.4,45.1,29.41,ESE,107,0.0,2.2,34,0.00,,SKC,0.04,VWS V14.01,2013-08-03 21:43:00,
2013-08-03 17:48:00,74.7,45.2,29.41,NNW,340,0.0,2.7,35,0.00,,SKC,0.04,VWS V14.01,2013-08-03 21:48:00,
2013-08-03 17:53:00,73.4,45.6,29.41,ESE,118,0.0,0.0,37,0.00,,SKC,0.04,VWS V14.01,2013-08-03 21:53:00,
2013-08-03 17:58:00,72.5,50.0,29.41,ESE,118,0.0,0.0,45,0.04,,SKC,0.08,VWS V14.01,2013-08-03 21:58:00,
2013-08-03 18:03:00,71.8,50.5,29.41,East,98,0.0,0.0,47,0.04,,SKC,0.08,VWS V14.01,2013-08-03 22:03:00,
2013-08-03 18:08:00,70.7,51.7,29.41,East,98,0.0,0.0,51,0.04,,SKC,0.08,VWS V14.01,2013-08-03 22:08:00,
2013-08-03 18:13:00,70.5,52.6,29.41,East,98,0.0,0.0,53,0.04,,SKC,0.08,VWS V14.01,2013-08-03 22:13:00,
2013-08-03 18:18:00,70.7,54.2,29.41,East,98,0.0,0.0,56,0.08,,SKC,0.12,VWS V14.01,2013-08-03 22:18:00,
2013-08-03 18:23:00,70.5,54.1,29.41,East,98,0.0,0.0,56,0.08,,SKC,0.12,VWS V14.01,2013-08-03 22:23:00,
2013-08-03 18:28:00,70.5,55.0,29.41,East,98,0.0,0.0,58,0.08,,SKC,0.12,VWS V14.01,2013-08-03 22:28:00,
2013-08-03 18:33:00,70.9,55.4,29.41,East,98,0.0,0.0,58,0.08,,SKC,0.12,VWS V14.01,2013-08-03 22:33:00,
2013-08-03 18:38:00,71.1,55.5,29.41,East,98,0.0,0.0,58,0.08,,SKC,0.12,VWS V14.01,2013-08-03 22:38:00,
2013-08-03 18:43:00,71.2,55.2,29.41,East,98,0.0,0.0,57,0.08,,SKC,0.12,VWS V14.01,2013-08-03 22:43:00,
2013-08-03 18:48:00,71.2,55.2,29.41,East,98,0.0,0.0,57,0.08,,SKC,0.12,VWS V14.01,2013-08-03 22:48:00,
2013-08-03 18:53:00,71.2,55.2,29.41,East,98,0.0,0.0,57,0.08,,SKC,0.12,VWS V14.01,2013-08-03 22:53:00,
2013-08-03 18:58:00,71.1,55.1,29.41,East,98,0.0,0.0,57,0.04,,SKC,0.12,VWS V14.01,2013-08-03 22:58:00,
2013-08-03 19:03:00,71.1,55.1,29.41,East,98,0.0,0.0,57,0.04,,SKC,0.12,VWS V14.01,2013-08-03 23:03:00,
2013-08-03 19:08:00,70.7,54.7,29.41,East,98,0.0,0.0,57,0.04,,SKC,0.12,VWS V14.01,2013-08-03 23:08:00,
2013-08-03 19:13:00,70.3,54.4,29.41,East,98,0.0,0.0,57,0.04,,SKC,0.12,VWS V14.01,2013-08-03 23:13:00,
2013-08-03 19:18:00,70.2,54.2,29.41,East,98,0.0,0.0,57,0.00,,SKC,0.12,VWS V14.01,2013-08-03 23:18:00,
2013-08-03 19:23:00,70.0,54.1,29.41,East,98,0.0,0.0,57,0.00,,SKC,0.12,VWS V14.01,2013-08-03 23:23:00,
2013-08-03 19:28:00,69.8,54.4,29.41,East,98,0.0,0.0,58,0.00,,SKC,0.12,VWS V14.01,2013-08-03 23:28:00,
2013-08-03 19:33:00,69.8,54.4,29.41,East,98,0.0,0.0,58,0.00,,SKC,0.12,VWS V14.01,2013-08-03 23:33:00,
2013-08-03 19:38:00,69.6,54.7,29.41,East,98,0.0,0.0,59,0.00,,SKC,0.12,VWS V14.01,2013-08-03 23:38:00,
2013-08-03 19:43:00,69.4,54.5,29.41,East,98,0.0,0.0,59,0.00,,SKC,0.12,VWS V14.01,2013-08-03 23:43:00,
2013-08-03 19:48:00,69.3,54.3,29.41,East,98,0.0,0.0,59,0.00,,SKC,0.12,VWS V14.01,2013-08-03 23:48:00,
2013-08-03 19:53:00,69.1,54.2,29.41,East,98,0.0,0.0,59,0.00,,SKC,0.12,VWS V14.01,2013-08-03 23:53:00,
2013-08-03 19:58:00,69.1,54.6,29.41,East,98,0.0,0.0,60,0.00,,SKC,0.12,VWS V14.01,2013-08-03 23:58:00,
2013-08-03 20:03:00,68.9,54.5,29.41,East,98,0.0,0.0,60,0.00,,SKC,0.12,VWS V14.01,2013-08-04 00:03:00,
2013-08-03 20:08:00,68.9,54.5,29.41,East,98,0.0,0.0,60,0.00,,SKC,0.12,VWS V14.01,2013-08-04 00:08:00,
2013-08-03 20:13:00,68.7,54.7,29.41,East,98,0.0,0.0,61,0.00,,SKC,0.12,VWS V14.01,2013-08-04 00:13:00,
2013-08-03 20:18:00,68.7,54.7,29.41,East,98,0.0,0.0,61,0.00,,SKC,0.12,VWS V14.01,2013-08-04 00:18:00,
2013-08-03 20:23:00,68.7,54.7,29.41,East,98,0.0,0.0,61,0.00,,SKC,0.12,VWS V14.01,2013-08-04 00:23:00,
2013-08-03 20:28:00,68.7,55.2,29.41,East,98,0.0,0.0,62,0.00,,SKC,0.12,VWS V14.01,2013-08-04 00:28:00,
2013-08-03 20:33:00,68.7,55.6,29.41,East,98,0.0,0.0,63,0.00,,SKC,0.12,VWS V14.01,2013-08-04 00:33:00,
2013-08-03 20:38:00,68.5,55.5,29.41,East,98,0.0,0.0,63,0.00,,SKC,0.12,VWS V14.01,2013-08-04 00:38:00,
2013-08-03 20:42:00,68.5,55.9,29.41,East,98,0.0,0.0,64,0.00,,SKC,0.12,VWS V14.01,2013-08-04 00:42:00,
2013-08-03 20:47:00,68.5,55.9,29.41,East,98,0.0,0.0,64,0.00,,SKC,0.12,VWS V14.01,2013-08-04 00:47:00,
2013-08-03 20:53:00,68.5,55.9,29.41,East,98,0.0,0.0,64,0.00,,SKC,0.12,VWS V14.01,2013-08-04 00:53:00,
2013-08-03 20:57:00,68.5,55.9,29.41,East,98,0.0,0.0,64,0.00,,SKC,0.12,VWS V14.01,2013-08-04 00:57:00,
2013-08-03 21:03:00,68.4,56.2,29.44,East,98,0.0,0.0,65,0.00,,SKC,0.12,VWS V14.01,2013-08-04 01:03:00,
2013-08-03 21:08:00,68.4,56.2,29.44,East,98,0.0,0.0,65,0.00,,SKC,0.12,VWS V14.01,2013-08-04 01:08:00,
2013-08-03 21:12:00,68.4,56.6,29.44,East,98,0.0,0.0,66,0.00,,SKC,0.12,VWS V14.01,2013-08-04 01:12:00,
2013-08-03 21:13:00,68.4,56.6,29.44,East,98,0.0,0.0,66,0.00,,SKC,0.12,VWS V14.01,2013-08-04 01:13:00,
2013-08-03 21:18:00,68.2,56.4,29.44,East,98,0.0,0.0,66,0.00,,SKC,0.12,VWS V14.01,2013-08-04 01:18:00,
2013-08-03 21:23:00,68.0,56.2,29.44,East,98,0.0,0.0,66,0.00,,SKC,0.12,VWS V14.01,2013-08-04 01:23:00,
2013-08-03 21:28:00,68.0,56.7,29.44,East,98,0.0,0.0,67,0.00,,SKC,0.12,VWS V14.01,2013-08-04 01:28:00,
2013-08-03 21:33:00,67.8,56.5,29.44,East,98,0.0,0.0,67,0.00,,SKC,0.12,VWS V14.01,2013-08-04 01:33:00,
2013-08-03 21:38:00,67.6,56.7,29.44,East,98,0.0,0.0,68,0.00,,SKC,0.12,VWS V14.01,2013-08-04 01:38:00,
2013-08-03 21:43:00,67.6,56.7,29.44,East,98,0.0,0.0,68,0.00,,SKC,0.12,VWS V14.01,2013-08-04 01:43:00,
2013-08-03 21:48:00,67.5,56.5,29.44,East,98,0.0,0.0,68,0.00,,SKC,0.12,VWS V14.01,2013-08-04 01:48:00,
2013-08-03 21:53:00,67.5,57.0,29.44,East,98,0.0,0.0,69,0.00,,SKC,0.12,VWS V14.01,2013-08-04 01:53:00,
2013-08-03 21:58:00,67.3,56.8,29.44,East,98,0.0,0.0,69,0.00,,SKC,0.12,VWS V14.01,2013-08-04 01:58:00,
2013-08-03 22:03:00,67.1,56.6,29.44,East,98,0.0,0.0,69,0.00,,SKC,0.12,VWS V14.01,2013-08-04 02:03:00,
2013-08-03 22:08:00,66.9,56.4,29.44,East,98,0.0,0.0,69,0.00,,SKC,0.12,VWS V14.01,2013-08-04 02:08:00,
2013-08-03 22:12:00,66.9,56.4,29.44,East,98,0.0,0.0,69,0.00,,SKC,0.12,VWS V14.01,2013-08-04 02:12:00,
2013-08-03 22:17:00,66.7,56.7,29.44,East,98,0.0,0.0,70,0.00,,SKC,0.12,VWS V14.01,2013-08-04 02:17:00,
2013-08-03 22:22:00,66.6,56.5,29.44,East,98,0.0,0.0,70,0.00,,SKC,0.12,VWS V14.01,2013-08-04 02:22:00,
2013-08-03 22:27:00,66.6,56.5,29.44,East,98,0.0,0.0,70,0.00,,SKC,0.12,VWS V14.01,2013-08-04 02:27:00,
2013-08-03 22:32:00,66.6,56.9,29.44,East,98,0.0,0.0,71,0.00,,SKC,0.12,VWS V14.01,2013-08-04 02:32:00,
2013-08-03 22:37:00,66.6,56.9,29.44,East,98,0.0,0.0,71,0.00,,SKC,0.12,VWS V14.01,2013-08-04 02:37:00,
2013-08-03 22:42:00,66.4,56.7,29.44,East,98,0.0,0.0,71,0.00,,SKC,0.12,VWS V14.01,2013-08-04 02:42:00,
2013-08-03 22:47:00,66.2,56.5,29.44,East,98,0.0,0.0,71,0.00,,SKC,0.12,VWS V14.01,2013-08-04 02:47:00,
2013-08-03 22:52:00,66.0,56.7,29.44,East,98,0.0,0.0,72,0.00,,SKC,0.12,VWS V14.01,2013-08-04 02:52:00,
2013-08-03 22:57:00,65.8,56.6,29.44,East,98,0.0,0.0,72,0.00,,SKC,0.12,VWS V14.01,2013-08-04 02:57:00,
2013-08-03 23:02:00,65.7,56.4,29.44,East,98,0.0,0.0,72,0.00,,SKC,0.12,VWS V14.01,2013-08-04 03:02:00,
2013-08-03 23:07:00,65.5,56.2,29.44,East,98,0.0,0.0,72,0.00,,SKC,0.12,VWS V14.01,2013-08-04 03:07:00,
2013-08-03 23:12:00,65.5,56.2,29.44,East,98,0.0,0.0,72,0.00,,SKC,0.12,VWS V14.01,2013-08-04 03:12:00,
2013-08-03 23:17:00,65.3,56.0,29.44,East,98,0.0,0.0,72,0.00,,SKC,0.12,VWS V14.01,2013-08-04 03:17:00,
2013-08-03 23:22:00,65.1,56.3,29.44,East,98,0.0,0.0,73,0.00,,SKC,0.12,VWS V14.01,2013-08-04 03:22:00,
2013-08-03 23:27:00,65.1,56.3,29.44,East,98,0.0,0.0,73,0.00,,SKC,0.12,VWS V14.01,2013-08-04 03:27:00,
2013-08-03 23:32:00,65.1,56.3,29.44,East,98,0.0,0.0,73,0.00,,SKC,0.12,VWS V14.01,2013-08-04 03:32:00,
2013-08-03 23:37:00,65.1,56.3,29.44,East,98,0.0,0.0,73,0.00,,SKC,0.12,VWS V14.01,2013-08-04 03:37:00,
2013-08-03 23:42:00,64.9,56.1,29.44,East,98,0.0,0.0,73,0.00,,SKC,0.12,VWS V14.01,2013-08-04 03:42:00,
2013-08-03 23:47:00,64.8,55.9,29.44,East,98,0.0,0.0,73,0.00,,SKC,0.12,VWS V14.01,2013-08-04 03:47:00,
2013-08-03 23:52:00,64.8,56.3,29.44,East,98,0.0,0.0,74,0.00,,SKC,0.12,VWS V14.01,2013-08-04 03:52:00,
2013-08-03 23:57:00,64.8,56.3,29.44,East,98,0.0,0.0,74,0.00,,SKC,0.12,VWS V14.01,2013-08-04 03:57:00,